This is the latest recevied weather packets stored in our database for station/object NG6B-2. If no packets are shown the sender has not sent any weather packets the latest 10 day(s).
| Time | Temp. | Humidity | Pressure | Rain* | Wind** | Luminosity | Snow |
|---|---|---|---|---|---|---|---|
| 1777636901 | 13.33° C | 73% | 1005.2 hPa | 0 mm | - | - | - |
| 1777635100 | 13.89° C | 72% | 1004.9 hPa | 0 mm | - | - | - |
| 1777633299 | 13.89° C | 68% | 1004.8 hPa | 0 mm | - | - | - |
| 1777631498 | 13.89° C | 69% | 1004.8 hPa | 0 mm | - | - | - |
| 1777629697 | 14.44° C | 65% | 1004.7 hPa | 0 mm | - | - | - |
| 1777627896 | 13.89° C | 68% | 1004.3 hPa | 0 mm | - | - | - |
| 1777626095 | 13.89° C | 69% | 1004 hPa | 0 mm | - | - | - |
| 1777624294 | 14.44° C | 69% | 1004.1 hPa | 0 mm | - | - | - |
| 1777622493 | 14.44° C | 68% | 1004.3 hPa | 0 mm | - | - | - |
| 1777620692 | 15° C | 68% | 1004.9 hPa | 0 mm | - | - | - |
| 1777618891 | 15° C | 69% | 1005.1 hPa | 0 mm | - | - | - |
| 1777617090 | 15° C | 69% | 1005.5 hPa | 0 mm | - | - | - |
| 1777615289 | 15° C | 64% | 1006 hPa | 0 mm | - | - | - |
| 1777613488 | 15° C | 64% | 1006 hPa | 0 mm | - | - | - |
| 1777611687 | 15° C | 64% | 1005.5 hPa | 0 mm | - | - | - |
| 1777609886 | 16.11° C | 61% | 1006 hPa | 0 mm | - | - | - |
| 1777608085 | 17.22° C | 60% | 1003.7 hPa | 0 mm | - | - | - |
| 1777606284 | 17.22° C | 68% | 1003.8 hPa | 0 mm | - | - | - |
| 1777604483 | 17.78° C | 68% | 1003.8 hPa | 0 mm | - | - | - |
| 1777602682 | 17.78° C | 61% | 1003.6 hPa | 0 mm | - | - | - |
| 1777600881 | 20° C | 53% | 1002.2 hPa | 0 mm | - | - | - |
| 1777599080 | 23.33° C | 36% | 1001.4 hPa | 0 mm | - | - | - |
| 1777597279 | 24.44° C | 30% | 1000.3 hPa | 0 mm | - | - | - |
| 1777595478 | 25° C | 26% | 999.9 hPa | 0 mm | - | - | - |
| 1777593677 | 26.67° C | 24% | 999.7 hPa | 0 mm | - | - | - |
* Rain latest hour (hover to see other rain measurements)
** Current wind speed in m/s (hover to see current wind gust speed)